Notices

What's New in latest Release from April 7th, 2021:

- Updated Glossary, including Speed of Maximum Gust, and Total Hourly Precipitation

- Updated national and regional climate services offices contacts and prices information

- Addition of station inventory lists for 1981-2010, 1971-2000, and 1961-1990 Normals.

If you haven't already, please take our survey and provide feedback about our website: https://eccc.sondage-survey.ca/f/LanguageSelection.aspx?s=442ca660-fcf1-47c0-95a9-59707d6fd709

Hourly Data Report for October 12, 2020

L'ASSOMPTION
QUEBEC
Current Station Operator: ECCC - MSC

45°48'34.000" N
73°26'05.000" W
21.00 m
7014160
71524
WEW

Download Data

Hourly Data (October 2020)
Hourly Data Report for October 12, 2020
TIME
LST
Temp Definition
°C
Dew Point Definition
°C
Rel Hum Definition
%
Precip. Amount Definition
mm

Wind Dir Definition
10's deg

Wind Spd Definition
km/h
Visibility Definition
km
Stn Press Definition
kPa
Hmdx Definition


Wind Chill Definition


Weather Definition


00:00 0.1 -1.1 91 0.0 35 4   102.59     LegendNANA
01:00 -0.2 -1.3 92 0.0 36 6   102.56   -2 LegendNANA
02:00 -0.2 -1.9 89 0.0 34 3   102.54   -1 LegendNANA
03:00 0.3 -1.8 86 0.0 1 7   102.51     LegendNANA
04:00 0.6 -1.8 84 0.0 1 9   102.46     LegendNANA
05:00 0.3 -1.4 88 0.0 1 9   102.47     LegendNANA
06:00 0.3 -0.9 92 0.0 2 9   102.48     LegendNANA
07:00 1.0 -0.7 88 0.0 2 7   102.51     LegendNANA
08:00 3.0 0.0 80 0.0 2 7   102.52     LegendNANA
09:00 5.8 0.8 70 0.0 4 8   102.50     LegendNANA
10:00 7.4 0.6 62 0.0 1 9   102.46     LegendNANA
11:00 10.0 1.6 56 0.0 5 11   102.37     LegendNANA
12:00 11.4 1.7 51 0.0 6 12   102.29     LegendNANA
13:00 12.9 3.3 52 0.0 2 11   102.21     LegendNANA
14:00 13.8 2.8 47 0.0 1 10   102.10     LegendNANA
15:00 14.1 2.9 47 0.0 2 11   102.01     LegendNANA
16:00 14.0 0.8 40 0.0 8 8   101.99     LegendNANA
17:00 12.6 2.1 49 0.0 8 7   101.93     LegendNANA
18:00 11.5 1.9 52 0.0 8 6   101.90     LegendNANA
19:00 11.5 1.6 50 0.0 8 8   101.89     LegendNANA
20:00 11.1 2.2 54 0.0 6 7   101.85     LegendNANA
21:00 9.7 2.3 60 0.0 6 6   101.84     LegendNANA
22:00 8.5 2.4 65 0.0 7 5   101.81     LegendNANA
23:00 8.0 2.3 67 0.0 6 7   101.79     LegendNANA

Notes on Data Quality.

Legend

  • E = Estimated
  • M = Missing
  • NA = Not Available*
  • [empty] = Indicates an unobserved value
Date modified: